AirNav   SIMCOM
 
 1566 users online  

3TE2 Texas Commerce Bank Building Heliport
Houston, Texas, USA

GOING TO HOUSTON?


FAA INFORMATION EFFECTIVE 07 DECEMBER 2017

Location

FAA Identifier: 3TE2
Lat/Long: 29-45-31.8210N / 095-21-49.7770W
29-45.530350N / 095-21.829617W
29.7588392 / -95.3638269
(estimated)
Elevation: 458 ft. / 140 m (estimated)
Variation: 06E (1985)
From city: 13 miles N of HOUSTON, TX
Time zone: UTC -6 (UTC -5 during Daylight Saving Time)
Zip code: 77002

Heliport Operations

Heliport use: Private use. Permission required prior to landing
Activation date: 05/1974
Control tower: no
ARTCC: HOUSTON CENTER
FSS: MONTGOMERY COUNTY FLIGHT SERVICE STATION
FOR FP FILING CALL CXO FSS 1-800-833-5602.
Attendance: UNATNDD
Wind indicator: no
Segmented circle: yes

Heliport Communications

WX ASOS at HOU (8 nm SE): PHONE 713-847-1462
WX ASOS at IAH (14 nm N): PHONE 281-443-6397
WX ASOS at LVJ (16 nm SE): 118.525 (281-992-1853)
WX AWOS-3 at AXH (16 nm S): 123.625 (281-431-6572)
WX ASOS at SGR (17 nm SW): 118.125 (281-242-7605)

Nearby radio navigation aids

VOR radial/distance  VOR name  Freq  Var
HUBr319/7.7HOBBY VOR/DME117.1005E
IAHr180/11.9HUMBLE VORTAC116.6005E
MHFr285/34.6TRINITY VOR/DME113.6007E
VUHr313/39.2SCHOLES VOR/DME113.0006E

 
NDB name  Hdg/Dist  Freq  Var  ID
NIXIN204/16.132605EBVP -... ...- .--.
SANJAC284/16.334705EJPA .--- .--. .-

Heliport Services

Runway Information

Helipad H1

Dimensions: 30 x 25 ft. / 9 x 8 m
Surface: wood
Traffic pattern: leftleft

Heliport Ownership and Management from official FAA records

Ownership: Privately-owned
Owner: TEXAS COMMERCE BANK
P.O. BOX 2558
HOUSTON, TX 77001
Phone 713-236-5536
Manager: SCOTT DENNIS
712 MAIN, SUITE 1100
HOUSTON, TX 77002
Phone 713-236-5536

Instrument Procedures

There are no published instrument procedures at 3TE2.

Some nearby airports with instrument procedures:

KHOU - William P Hobby Airport (8 nm SE)
KIAH - George Bush Intercontinental/Houston Airport (14 nm N)
KEFD - Ellington Airport (14 nm SE)
KLVJ - Pearland Regional Airport (16 nm SE)
KAXH - Houston Southwest Airport (16 nm S)
KIWS - West Houston Airport (16 nm W)
T41 - La Porte Municipal Airport (17 nm E)
KSGR - Sugar Land Regional Airport (17 nm SW)
 
Loc | Ops | Rwys | IFR | FBO | Links
Com | Nav | Svcs | Stats | Notes


 
Area around 3TE2 (Texas Commerce Bank Building Heliport)
 
Road maps at: MapQuest Bing Google
 
Aerial photo
No photo
 
Sectional chart

 
Airport distance calculator
Flying to Texas Commerce Bank Building Heliport? Find the distance to fly.

From to 3TE2

Sunrise and sunset
Times for 11-Dec-2017
 Local
(UTC-6)
 Zulu
(UTC)
Morning civil twilight06:4112:41
Sunrise07:0813:08
Sunset17:2223:22
Evening civil twilight17:4823:48

Current date and time
Zulu (UTC)  11-Dec-2017 18:24:04
Local (UTC-6)  11-Dec-2017 12:24:04
 
METAR
KHOU 
9nm SE 
111753Z 27006KT 10SM SCT250 20/03 A3028 RMK AO2 SLP257 T02000028 10200 20039 58012
KEFD 
14nm SE 
111750Z 27003KT 10SM SCT250 15/04 A3030
KIAH 
14nm N 
111753Z VRB03KT 10SM FEW250 21/02 A3027 RMK AO2 SLP251 T02060022 10206 20061 58014
KLVJ 
16nm S 
111753Z AUTO 24005KT 10SM CLR 20/03 A3029 RMK AO2 SLP256 T02000033 10200 20022 58012 $
KAXH 
16nm S 
111755Z AUTO 00000KT 10SM CLR 20/04 A3029 RMK AO2 T02000042 10201 20031
KSGR 
17nm SW 
111753Z 00000KT 10SM CLR 21/03 A3028 RMK AO2 SLP257 T02060028 10206 20033 58010
TAF
KHOU 
9nm SE 
111721Z 1118/1218 25004KT P6SM SCT250 FM120900 35009KT P6SM SCT250 TEMPO 1215/1218 36013G21KT
KEFD 
14nm SE 
111200Z 1112/1218 VRB06KT 9999 SKC QNH3016INS TX19/1120Z TN06/1112Z
KIAH 
14nm N 
111721Z 1118/1224 29005KT P6SM SCT250 FM120900 33009KT P6SM SCT250 FM121500 01013KT P6SM SCT250 TEMPO 1215/1219 36013G21KT
KSGR 
17nm SW 
111721Z 1118/1218 26003KT P6SM SCT250 FM121000 34008KT P6SM SCT250 TEMPO 1215/1218 36013G21KT
NOTAMs
Click for the latest NOTAMs
NOTAMs are issued by the DoD/FAA and will open in a separate window not controlled by AirNav.

 

 
 

Would you like to see your business listed on this page?

 If your business provides an interesting product or service to pilots, flight crews, aircraft, or users of the Texas Commerce Bank Building Heliport, you should consider listing it here.  To start the listing process, click on the button below
 
Add a business
 

Other Pages about Texas Commerce Bank Building Heliport

Update a link
 
Copyright © AirNav, LLC. All rights reserved. Privacy Policy  Contact